Find Local Weather

World > North America > United States > New York

Bronx, New York Regional Weather

Lat: 40.85N, Lon: 73.87W
Wx Zone: NYZ073
Feedback

Bronx, NY Regional Weather

Expires:201903201400;;651353
ASUS41 KALY 201310
RWRALY

NEW YORK STATE HOURLY WEATHER ROUNDUP
NATIONAL WEATHER SERVICE ALBANY NY
900 AM EDT WED MAR 20 2019

NOTE: "FAIR" INDICATES FEW OR NO CLOUDS BELOW 12,000 FEET WITH NO
SIGNIFICANT WEATHER AND/OR NO OBSTRUCTIONS TO VISIBILITY.


NYZ032-033-038>043-046>054-057>066-NYZ062>081-082-084-201400-
EAST

  
CITY           SKY/WX    TMP DP  RH WIND       PRES   REMARKS
ALBANY         FAIR      37  20  50 S7        30.37S WCI  32          
GLENS FALLS    PTSUNNY   25  20  81 CALM      30.37F                  
POUGHKEEPSIE   FAIR      32  24  72 CALM      30.39S                  
NEWBURGH       SUNNY     30  25  80 CALM      30.39R                  
MONTGOMERY     FAIR      29  25  85 CALM      30.38R                  
WHITE PLAINS   FAIR      36  30  79 S6        30.39R WCI  31          
ISLIP          FAIR      40  37  89 SW8       30.41S WCI  34          
NEW YORK CITY  FAIR      41  30  65 S6        30.41S                  
CENTRAL PARK   FAIR      42  31  64 CALM      30.43S                  
$$


SKY/WX - Weather  TMP - Temperature  DP - Dew Point  RH - Relative Humidity
WIND - Wind Direction/Speed PRES - Barometric Pressure VSB - Visibility
WCI - Wind Chill Index E13G22 Wind - East Wind 13 mph/Gusts of 22 mph